Location: Grand Lay
(47.3253°N, 0.9468°E)
Time: 06:59:23
(UTC+00:00)

Cosmos 540 Rocket - Pass Details

Date: 18 January 2026
Orbit: 736 x 747 km, 74.1° (Epoch: 17 February)

Event Time Altitude Azimuth Distance (km) Brightness Sun altitude
Exits shadow 06:20:20 - 333° (NNW) 2,493 5.7 -12.7°
Reaches altitude 10° 06:20:57 10° 332° (NNW) 2,251 5.5 -12.6°
Maximum altitude 06:25:58 61° 253° (WSW) 834 3.5 -11.8°
Drops below altitude 10° 06:30:57 10° 173° (S) 2,239 6.3 -11.0°
Sets 06:33:19 0° 170° (S) 3,159 7.1 -10.6°
